Lid_Strength_Index
3 2 2 1 1 1 1 1 1 1 0 1 1 1 1 0 -0 -1 -2 -1 -1 -2 -2 -1 -0 -1 0 -0 -1 -0 0 0 -0 1 1 1 -0 -0 -0 -0 -0 -0 -0
4 3 2 2 2 2 1 1 1 1 1 1 1 0 1 0 -0 -1 -1 -1 -1 -1 -1 -1 -1 -0 -0 -0 -0 -0 1 1 -0 2 3 4 2 1 0 0 -0 -0 -1
4 3 3 2 2 2 2 1 1 1 0 0 0 0 0 0 1 0 0 -0 -1 -1 -1 -1 -0 -1 -0 0 0 0 1 2 1 0 2 5 5 3 1 0 0 -0 0
4 3 3 3 2 2 1 1 1 1 1 0 1 1 2 2 1 1 0 -0 -1 -1 -1 -1 -1 -1 -0 0 0 -0 0 1 2 1 0 1 2 4 5 2 1 0 0
4 3 3 2 2 1 1 1 1 1 1 0 0 1 2 1 1 0 0 0 -0 -1 -1 -1 -1 -0 -0 -0 0 -0 0 0 1 1 1 1 1 1 3 5 3 1 0
4 3 3 2 2 1 1 1 1 1 1 1 1 1 1 1 1 1 1 1 1 0 -0 -1 -0 -1 -0 -0 -0 -0 0 0 1 1 1 2 3 3 3 4 4 3 2
4 3 3 3 2 2 2 2 2 2 1 1 1 1 1 1 1 1 1 1 1 1 0 -0 0 0 -0 -0 -0 -0 0 0 1 0 1 1 1 1 2 2 3 3 2
3 3 3 3 3 2 2 2 2 2 1 1 1 1 1 1 1 1 1 1 1 1 0 0 -0 -0 -0 -0 -0 0 0 0 0 1 1 1 1 0 1 2 3 4 3
3 3 3 3 3 2 2 2 2 2 2 1 1 1 1 1 1 1 0 1 0 0 0 0 0 0 -0 -0 -0 0 1 0 0 0 0 1 1 0 0 1 1 3 5
3 3 3 3 2 2 2 2 2 2 2 1 1 1 1 1 1 1 1 1 0 0 -0 0 0 0 0 -0 0 0 0 1 1 0 1 1 0 0 0 1 1 1 3
3 3 3 3 2 2 2 2 2 2 2 1 1 1 1 1 1 1 1 1 0 0 0 0 0 0 0 0 0 1 1 1 1 1 1 1 0 1 1 0 1 1 2
3 3 3 3 3 2 2 2 2 2 2 1 1 1 1 1 1 1 1 0 1 0 0 0 0 1 0 0 1 1 1 1 1 1 1 1 1 1 1 1 1 1 1
3 3 3 3 3 2 2 2 2 2 1 1 1 1 1 1 1 1 1 1 1 1 0 0 1 1 1 1 1 1 1 1 1 1 1 1 1 1 1 1 1 1 1
3 3 3 3 3 2 2 2 2 1 1 1 2 2 2 1 1 1 1 1 1 1 1 1 1 1 1 1 1 1 1 1 1 1 1 1 1 1 1 1 1 1 1
3 3 3 3 3 3 2 2 2 2 1 2 2 2 1 1 1 1 1 1 1 1 1 1 1 1 1 1 1 1 1 1 1 1 1 0 0 1 1 1 1 1 2
3 2 2 1 1 2 3 2 2 2 1 2 2 2 1 1 1 1 1 1 1 1 1 1 1 1 1 3 4 1 1 1 1 1 1 0 2 2 3 3 1 1 2
3 2 1 2 1 2 2 2 2 1 2 2 2 2 2 2 2 1 1 1 1 1 1 1 1 1 1 5 6 4 1 1 1 1 1 1 1 1 1 4 3 2 2
2 1 3 2 1 1 2 1 2 2 2 2 2 2 2 2 2 2 2 2 1 2 2 1 1 1 1 6 7 6 1 1 1 1 1 1 1 1 1 1 2 2 1
2 2 2 1 1 2 1 2 2 2 2 2 2 2 2 2 2 2 2 2 2 2 2 1 1 1 1 7 8 7 1 1 1 1 1 1 1 3 5 1 2 2 2
3 3 2 2 1 -0 0 1 2 2 3 2 2 1 1 2 2 2 2 1 1 2 1 2 1 2 1 6 10 8 1 2 2 1 1 5 1 6 8 1 2 2 2
2 2 2 2 1 1 1 2 1 2 2 2 1 2 1 2 2 2 1 2 2 2 2 2 1 1 1 1 10 11 1 2 2 2 2 1 7 8 10 6 1 2 1
3 2 2 2 1 -0 1 2 2 1 1 1 2 2 2 2 2 2 2 2 2 2 2 2 2 1 1 6 8 12 10 4 2 2 1 1 8 10 11 9 5 8 5
3 2 3 2 1 0 1 2 2 1 1 1 2 2 2 2 1 2 2 2 2 2 3 3 3 2 1 1 9 11 12 10 4 1 2 10 11 11 10 10 8 8 2
3 3 3 3 3 2 2 1 1 -0 0 1 2 2 2 2 2 2 2 2 2 3 3 3 3 3 2 2 1 2 7 10 7 5 3 4 5 8 6 7 7 2 1
3 3 3 3 3 2 2 1 1 1 1 1 2 2 2 2 2 2 2 2 2 3 2 2 2 3 3 6 12 10 3 2 5 4 1 2 2 2 4 3 4 2 1
3 3 3 3 3 2 2 2 1 1 2 2 2 2 2 2 2 2 2 7 9 12 16 15 8 4 13 17 18 17 15 14 13 5 3 3 3 4 3 3 4 3 3